Regional Weather Roundup
Issued by NWS

Home | Current Version | Previous Version | Text Only | Print | Product List | Glossary Off
Versions: 1 2 3 4 5 6 7 8 9 10 11 12 13 14 15 16 17 18 19 20 21 22 23 24 25 26 27 28 29 30 31 32 33 34 35 36 37 38 39 40 41 42 43 44 45 46 47 48 49 50

476
ASUS43 KMKX 222221
RWRWI

WISCONSIN REGIONAL WEATHER ROUNDUP
NATIONAL WEATHER SERVICE MILWAUKEE/SULLIVAN WI
500 PM CDT WED MAR 22 2017

NOTE: "FAIR" INDICATES FEW OR NO CLOUDS BELOW 12,000 FEET WITH NO
SIGNIFICANT WEATHER AND/OR OBSTRUCTIONS TO VISIBILITY.

WIZ001-002-006>008-014>016-023>028-222300-
NORTHWEST WISCONSIN

CITY           SKY/WX    TMP DP  RH WIND       PRES   REMARKS
SUPERIOR ARPT  MOSUNNY   31  17  57 NE10      30.43F WCI  22
ASHLAND        CLOUDY    33  15  47 NE10      30.43F WCI  25
HAYWARD        CLOUDY    38   6  26 S10       30.41F WCI  31
SIREN          MOSUNNY   38   6  26 S9        30.40F WCI  31
CUMBERLAND     CLOUDY    36   9  32 SE9       30.40F WCI  29
RICE LAKE      CLOUDY    37   7  29 CALM      30.43F
CHETEK         CLOUDY    37   8  31 SE3       30.43F
LADYSMITH      SUNNY     35  11  36 S8        30.45F WCI  28
EAU CLAIRE     MOSUNNY   38   5  25 SE13      30.43F WCI  30
MENOMONIE      MOSUNNY   38   5  25 S7        30.43F WCI  33
NEW RICHMOND   CLOUDY    37   4  25 SE9G18    30.41F WCI  30
OSCEOLA        PTSUNNY   38   9  30 S12       30.43F WCI  30
$$

WIZ003>005-009-010-017-018-222300-
NORTH CENTRAL WISCONSIN

CITY           SKY/WX    TMP DP  RH WIND       PRES   REMARKS
MANITOWISH WTR MOSUNNY   33   3  28 S6        30.40F WCI  28
ARBOR VITAE    CLOUDY    37   5  27 S8        30.41F WCI  30
WOODRUFF       CLOUDY    37   5  27 S8        30.41F WCI  30
RHINELANDER    CLOUDY    36   5  27 S8        30.42F WCI  30
EAGLE RIVER    SUNNY     34  -3  20 SW3       30.41F
LAND O LAKES   SUNNY     35  -1  21 SW5       30.43S WCI  31
PHILLIPS       MOSUNNY   35   7  30 S8        30.40F WCI  29
TOMAHAWK       CLOUDY    35   6  30 S3        30.43F
MEDFORD        CLOUDY    32  11  42 SE8       30.43F WCI  25
MERRILL        SUNNY     36   6  28 SE5       30.46F WCI  32
$$

WIZ029-030-035-036-043>047-222300-
CENTRAL WISCONSIN

CITY           SKY/WX    TMP DP  RH WIND       PRES   REMARKS
WAUSAU         SUNNY     35   3  26 S6        30.45F WCI  30
MOSINEE        MOSUNNY   34   7  32 S6        30.47F WCI  29
MARSHFIELD     SUNNY     36   5  27 SE6       30.44F WCI  31
STEVENS POINT  SUNNY     35   6  30 SE8       30.48S WCI  28
WAUPACA        MOSUNNY   37   6  27 SE6       30.51F WCI  33
WAUTOMA        SUNNY     36  12  37 SE12      30.49F WCI  28
WISC RAPIDS    SUNNY     39   8  27 VRB6      30.47F WCI  35
CAMP DOUGLAS   PTSUNNY   39   5  24 SE10      30.46F WCI  32
$$

WIZ011>013-019>022-031-037>040-048>050-222300-
NORTHEAST WISCONSIN

CITY           SKY/WX    TMP DP  RH WIND       PRES   REMARKS
ANTIGO         CLOUDY    32   6  33 S7        30.45F WCI  26
SHAWANO        CLOUDY    37  12  36 SE7       30.51F WCI  31
OCONTO         CLOUDY    29  15  57 SE6       30.55S WCI  23
STURGEON BAY   SUNNY     28  16  60 SE6       30.55F WCI  22
GREEN BAY      SUNNY     34  19  54 SE6       30.52F WCI  29
MANITOWOC      SUNNY     28  18  66 SE12      30.56F WCI  18
APPLETON       MOSUNNY   34   3  27 VRB5      30.50F WCI  30
CLINTONVILLE   CLOUDY    34  10  37 S6        30.51S WCI  29
OSHKOSH        SUNNY     34  17  50 E8        30.51F WCI  27
$$

WIZ032>034-041-042-053>061-222300-
SOUTHWEST WISCONSIN

CITY           SKY/WX    TMP DP  RH WIND       PRES   REMARKS
LA CROSSE      MOSUNNY   43   7  22 S9        30.45F
SPARTA         SUNNY     41   8  25 SE8       30.46F
VIROQUA        MOSUNNY   39   7  26 S10       30.42F WCI  32
BOSCOBEL       CLOUDY    42   7  23 E5        30.47F
PRAIRIE DU CHI CLOUDY    42   6  23 E10       30.44F
PLATTEVILLE    SUNNY     40  14  33 E8        30.46S WCI  35
$$

WIZ056-057-062-063-064-067-068-222300-
SOUTH CENTRAL WISCONSIN

CITY           SKY/WX    TMP DP  RH WIND       PRES   REMARKS
REEDSBURG      SUNNY     38  11  33 S3        30.46F
BARABOO/DELLS  SUNNY     37  12  34 S7        30.47F WCI  32
LONE ROCK      MOSUNNY   41   9  26 SE9       30.47F
MINERAL POINT  MOSUNNY   41  10  28 E7        30.45S
MADISON        PTSUNNY   37  13  37 VRB5      30.48F WCI  33
MIDDLETON      SUNNY     40  14  34 CALM      30.48F
WATERTOWN      SUNNY     36  16  43 E9        30.49S WCI  29
MONROE         SUNNY     37  12  35 SE6       30.45F WCI  33
JANESVILLE     MOSUNNY   39  16  38 SE9       30.48F WCI  33
$$

WIZ051-052-058>065-066-070>072-222300-
SOUTHEAST WISCONSIN

CITY           SKY/WX    TMP DP  RH WIND       PRES   REMARKS
MILWAUKEE      PTSUNNY   32  17  54 E10       30.54F WCI  24
WAUKESHA       SUNNY     32  16  51 E9        30.52F WCI  24
MILWAUKEE/TIMM SUNNY     30  16  55 E7        30.54F WCI  23
RACINE         SUNNY     30  17  58 E10       30.55F WCI  21
KENOSHA        SUNNY     31  18  58 E10       30.53F WCI  22
FOND DU LAC    SUNNY     35  18  49 NE10      30.51F WCI  27
SHEBOYGAN      SUNNY     29  16  58 E7        30.54F WCI  22
WEST BEND      MOSUNNY   32  19  59 E8        30.52F WCI  25
JUNEAU         SUNNY     35  18  48 E7        30.50S WCI  30
$$

LSZ147-162-222300-
LAKE SUPERIOR

STATION/POSITION TIME  TEMP    WIND        PRES    WAVE
                       AIR SEA DIR/SP/G            HT/PER
                 (UTC) (F)     (DEG/KT/KT) (MB)    (FT/S)
DEVILS ISLAND    2200   26      70/ 12/ 13 1032.4F
PORT WING        2140   29      30/ 14/ 17 1030.5F
SAXON HARBOR     2130   28      40/ 14/ 15 1030.8F
$$

LMZ867-665-643>646-222300-
LAKE MICHIGAN

STATION/POSITION TIME  TEMP    WIND        PRES    WAVE
                       AIR SEA DIR/SP/G            HT/PER
                 (UTC) (F)     (DEG/KT/KT) (MB)    (FT/S)
CHAMBERS ISLAND  2140   27      90/  5/  7 1033.9F
NORTHPORT PIER   2140   25     140/  3/  5 1034.5F
SISTER BAY       2135   35     310/  7/  7   N/A
KEWAUNEE LAKESHO 2154   27     100/  3/  6 1034.0F
SHEBOYGAN LAKESH 2200   26      90/  7/  8 1035.5F
PORT WASHINGTON  2130   29      90/  5/  8 1035.6F
MILWAUKEE LAKESH 2200   28      70/  9/ 11   N/A
KENOSHA   LAKESH 2200   28      80/  7/ 10 1034.2
$$

TC  - TEMPERATURE IN CELSIUS
VSB - VISIBILITY IN STATUTE MILES
WCI - WIND CHILL INDEX
HX  - HEAT INDEX





USA.gov is the U.S. government's official web portal to all federal, state and local government web resources and services.